[[{"header":{"parameterUnit":"m.s-1","parameterCategory":1,"la1":30.2991,"la2":30.254,"lo1":-89.0895,"lo2":-89.0444,"dy":0.0017,"dx":0.0017,"nx":28,"ny":28,"refTime":"2024-04-15T21:00:00:Z","depth":0,"parameterNumber":2,"parameterNumberName":"U-component_of_WINDS"},"data":[0,0,0,0,0,0,0,0,0,0,0,0,0,0,0,0,0,0,0,0,0,0,0,0,0,0,0,0,0,0,0,0,0,0,0,0,0,0,0,0,0,0,0,0,0,0,0,0,0,0,0,0,0,0,0,0,0,0,-2.4625,-2.4624,0,-2.4545,-2.4544,-2.4543,-2.4468,-2.4467,-2.4466,-2.4465,-2.4382,-2.438,-2.4379,0,0,0,0,0,0,0,0,0,0,0,0,0,-2.4712,-2.4711,-2.4625,-2.4624,-2.4623,-2.4545,-2.4544,-2.4543,-2.4468,-2.4467,-2.4466,-2.4465,-2.4382,-2.438,-2.4379,0,0,0,0,0,0,0,0,0,0,0,0,0,-2.4657,-2.4711,-2.4625,-2.4576,-2.4571,-2.4545,-2.4544,-2.4543,-2.4468,-2.4467,-2.4465,-2.4464,-2.4383,-2.4381,-2.4379,-2.4394,0,0,-2.4372,-2.4371,0,0,0,0,0,0,0,0,-2.4661,-2.4654,-2.4584,-2.458,-2.4574,-2.4515,-2.4544,-2.4493,-2.4469,-2.4507,-2.4465,-2.4463,-2.4427,-2.4421,-2.4409,-2.439,-2.4387,-2.4372,-2.4371,-2.437,-2.4369,0,0,0,0,0,0,0,-2.4665,-2.4657,-2.4593,-2.4583,-2.4577,-2.4558,-2.4549,-2.4534,-2.4476,-2.4504,-2.4498,-2.449,-2.4424,-2.4411,-2.4407,-2.4385,-2.4372,-2.437,-2.4369,-2.4368,-2.4376,-2.4377,0,0,0,0,0,0,-2.4676,-2.4661,-2.4596,-2.4591,-2.4615,-2.4558,-2.4547,-2.4535,-2.4476,-2.4465,-2.4491,-2.4487,-2.4415,-2.4409,-2.4403,-2.4418,-2.437,-2.4368,-2.4367,-2.4375,-2.4376,-2.4378,0,0,0,0,0,0,-2.4678,-2.4671,-2.4599,-2.4624,-2.4614,-2.4558,-2.4545,-2.4534,-2.4522,-2.4466,-2.4455,-2.4489,-2.4414,-2.4406,-2.4397,-2.4414,-2.4367,-2.4365,-2.4373,-2.4375,-2.4377,-2.4447,0,0,0,0,0,0,-2.4681,-2.4672,-2.4677,-2.4625,-2.4613,-2.4594,-2.4546,-2.4534,-2.4519,-2.4512,-2.4461,-2.4452,-2.4412,-2.4401,-2.4395,-2.441,-2.4364,-2.4371,-2.4374,-2.4376,-2.4443,-2.4451,-2.4458,0,0,0,0,0,-2.4684,-2.47,-2.4678,-2.467,-2.4618,-2.4595,-2.4588,-2.4543,-2.452,-2.4525,-2.449,-2.4453,-2.4414,-2.44,-2.4394,-2.4408,-2.437,-2.4373,-2.4376,-2.4439,-2.4449,-2.4458,0,0,0,0,0,0,-2.4754,-2.4692,-2.4667,-2.4666,-2.4637,-2.4583,-2.4587,-2.4555,-2.4531,-2.4526,-2.4471,-2.446,-2.4457,-2.4432,-2.4419,-2.4421,-2.4387,-2.4389,-2.4437,-2.4446,-2.4454,-2.4459,-2.4362,0,0,0,0,0,-2.477,-2.4757,-2.4703,-2.4707,-2.4694,-2.4644,-2.4632,-2.46,-2.4567,-2.4554,-2.4518,-2.4487,-2.4467,-2.4456,-2.4435,-2.444,-2.4427,-2.4446,-2.4454,-2.4461,-2.4462,-2.4464,-2.4471,-2.4388,-2.4388,-2.4388,0,0,-2.4801,-2.4765,-2.476,-2.472,-2.4694,-2.4681,-2.4633,-2.4622,-2.4612,-2.4552,-2.4541,-2.4514,-2.4476,-2.4475,-2.4472,-2.4453,-2.4483,-2.4465,-2.447,-2.4468,-2.4468,-2.4476,-2.4483,-2.4391,-2.439,-2.439,0,0,-2.4851,-2.4823,-2.4824,-2.4799,-2.476,-2.4727,-2.4727,-2.4679,-2.4658,-2.4647,-2.4602,-2.459,-2.4557,-2.4532,-2.4516,-2.456,-2.4525,-2.4554,-2.4594,-2.4596,-2.4602,-2.4608,-2.4623,-2.4629,-2.4557,-2.4557,-2.4557,0,-2.4895,-2.4874,-2.4828,-2.482,-2.4804,-2.475,-2.475,-2.4728,-2.4685,-2.4675,-2.4655,-2.4614,-2.4585,-2.4576,-2.4587,-2.4576,-2.4574,-2.4559,-2.4605,-2.461,-2.4615,-2.4629,-2.4635,-2.4561,-2.456,-2.456,-2.456,0,-2.493,-2.4917,-2.4922,-2.4882,-2.4866,-2.4863,-2.4816,-2.4806,-2.4776,-2.4745,-2.4735,-2.4699,-2.467,-2.4666,-2.4636,-2.4654,-2.4643,-2.4616,-2.458,-2.4627,-2.4639,-2.4644,-2.4566,-2.4565,-2.4564,-2.4563,0,0,-2.5019,-2.4955,-2.4958,-2.494,-2.4894,-2.4883,-2.4877,-2.485,-2.4842,-2.4815,-2.4808,-2.4783,-2.4757,-2.4739,-2.4706,-2.4708,-2.4745,-2.4679,-2.4678,-2.4692,-2.4762,-2.4783,-2.479,-2.4723,-2.4724,-2.4724,-2.4765,0,-2.5061,-2.5047,-2.5007,-2.5005,-2.4993,-2.4944,-2.4939,-2.491,-2.4882,-2.4867,-2.4836,-2.4819,-2.4786,-2.4775,-2.4774,-2.4741,-2.4758,-2.4737,-2.4716,-2.4716,-2.4725,-2.4796,-2.4817,-2.4857,-2.477,-2.477,-2.4771,0,-2.5107,-2.5084,-2.5082,-2.5038,-2.5031,-2.5027,-2.5,-2.4986,-2.4954,-2.4933,-2.4913,-2.4878,-2.4869,-2.4838,-2.4826,-2.4812,-2.4802,-2.4784,-2.4785,-2.4779,-2.4745,-2.4792,-2.4869,-2.4874,-2.4778,-2.4778,-2.4777,0,-2.5172,-2.514,-2.5135,-2.5121,-2.507,-2.5068,-2.5047,-2.5013,-2.4999,-2.4975,-2.4966,-2.4942,-2.4928,-2.491,-2.4869,-2.485,-2.4861,-2.4826,-2.4843,-2.4844,-2.4846,-2.4846,-2.4921,-2.4842,-2.4842,-2.4841,-2.4841,0,-2.5222,-2.5222,-2.5163,-2.516,-2.5159,-2.5113,-2.5114,-2.5088,-2.5058,-2.5049,-2.5005,-2.4998,-2.4945,-2.4931,-2.4899,-2.4894,-2.4888,-2.4871,-2.4862,-2.4874,-2.4876,-2.4865,-2.486,-2.4843,-2.4843,-2.4842,-2.4842,0,-2.5293,-2.5253,-2.5244,-2.5198,-2.5186,-2.5188,-2.5147,-2.5142,-2.5113,-2.5102,-2.5096,-2.5049,-2.5031,-2.4989,-2.496,-2.4938,-2.4941,-2.4926,-2.4952,-2.4946,-2.4965,-2.4964,-2.5034,-2.5041,-2.4959,-2.496,-2.4961,0,-2.5326,-2.5326,-2.528,-2.5271,-2.5252,-2.5238,-2.5224,-2.518,-2.5167,-2.5131,-2.5131,-2.511,-2.509,-2.5063,-2.5026,-2.5004,-2.4987,-2.5014,-2.4983,-2.4996,-2.4987,-2.4987,-2.4986,-2.502,-2.5021,-2.5022,-2.5023,0,-2.539,-2.5371,-2.5354,-2.533,-2.5316,-2.5295,-2.5271,-2.5267,-2.5216,-2.5205,-2.5186,-2.5171,-2.5142,-2.5122,-2.5094,-2.5072,-2.5039,-2.5033,-2.5035,-2.5047,-2.5062,-2.5053,-2.4969,-2.5031,-2.503,-2.5029,-2.5029,-2.5029,-2.5442,-2.544,-2.5408,-2.539,-2.5368,-2.5348,-2.5341,-2.5311,-2.5295,-2.5268,-2.5243,-2.5227,-2.5196,-2.5156,-2.5136,-2.5123,-2.5106,-2.511,-2.5111,-2.5112,-2.5117,-2.5066,-2.5118,-2.5118,-2.5117,-2.5117,-2.5117,0,-2.5503,-2.5481,-2.5465,-2.5434,-2.5421,-2.5393,-2.5366,-2.5357,-2.5343,-2.5317,-2.53,-2.5279,-2.5259,-2.5222,-2.5199,-2.5196,-2.5181,-2.5191,-2.519,-2.5186,-2.5134,-2.5133,-2.5204,-2.5204,-2.5204,-2.5204,-2.5204,-2.5204,-2.5533,-2.5527,-2.5505,-2.5489,-2.5466,-2.545,-2.5438,-2.5419,-2.5398,-2.5377,-2.5361,-2.5337,-2.5307,-2.5282,-2.5263,-2.5252,-2.5246,-2.5261,-2.5246,-2.5198,-2.5189,-2.5181,-2.5181,-2.5261,-2.5261,-2.5299,-2.5299,-2.53]},{"header":{"parameterUnit":"m.s-1","parameterCategory":1,"la1":30.2991,"la2":30.254,"lo1":-89.0895,"lo2":-89.0444,"dy":0.0017,"dx":0.0017,"nx":28,"ny":28,"refTime":"2024-04-15T21:00:00:Z","depth":0,"parameterNumber":3,"parameterNumberName":"V-component_of_WINDS"},"data":[0,0,0,0,0,0,0,0,0,0,0,0,0,0,0,0,0,0,0,0,0,0,0,0,0,0,0,0,0,0,0,0,0,0,0,0,0,0,0,0,0,0,0,0,0,0,0,0,0,0,0,0,0,0,0,0,0,0,3.3752,3.3752,0,3.3751,3.3751,3.3751,3.3736,3.3735,3.3735,3.3735,3.3732,3.3733,3.3733,0,0,0,0,0,0,0,0,0,0,0,0,0,3.374,3.374,3.3752,3.3752,3.3752,3.3751,3.3751,3.3751,3.3736,3.3735,3.3735,3.3734,3.3732,3.3733,3.3733,0,0,0,0,0,0,0,0,0,0,0,0,0,3.3743,3.374,3.3752,3.3744,3.3744,3.3751,3.3751,3.3751,3.3736,3.3735,3.3735,3.3734,3.3732,3.3733,3.3733,3.3748,0,0,3.3734,3.3735,0,0,0,0,0,0,0,0,3.3743,3.3743,3.3746,3.3745,3.3744,3.3743,3.3746,3.375,3.3736,3.3739,3.3735,3.3734,3.3736,3.3736,3.3737,3.3748,3.3748,3.3734,3.3735,3.3735,3.3735,0,0,0,0,0,0,0,3.3742,3.3743,3.3752,3.3746,3.3745,3.3741,3.374,3.3747,3.3741,3.3738,3.3737,3.3738,3.3736,3.3737,3.3737,3.3748,3.3734,3.3735,3.3735,3.3735,3.3771,3.3771,0,0,0,0,0,0,3.3743,3.3743,3.3752,3.3752,3.3742,3.3741,3.3741,3.3744,3.3741,3.374,3.3738,3.3737,3.3737,3.3737,3.3737,3.3755,3.3735,3.3735,3.3736,3.377,3.3771,3.3772,0,0,0,0,0,0,3.3743,3.3744,3.3752,3.3747,3.3748,3.3742,3.3746,3.3744,3.3746,3.374,3.3739,3.3741,3.3736,3.3737,3.3746,3.3754,3.3736,3.3736,3.3769,3.377,3.3771,3.379,0,0,0,0,0,0,3.3743,3.3744,3.375,3.3747,3.3748,3.3761,3.3746,3.3745,3.3747,3.3745,3.3742,3.3741,3.3736,3.3745,3.3746,3.3755,3.3736,3.3768,3.377,3.3771,3.3788,3.3791,3.3794,0,0,0,0,0,3.3743,3.3755,3.375,3.3752,3.3755,3.3761,3.3761,3.3755,3.3747,3.3753,3.375,3.3741,3.3753,3.3746,3.3747,3.3756,3.3768,3.3769,3.3771,3.3787,3.379,3.3794,0,0,0,0,0,0,3.3758,3.3754,3.3749,3.3761,3.3762,3.3758,3.3765,3.3759,3.3761,3.3759,3.3751,3.3751,3.3761,3.3759,3.3751,3.3771,3.3759,3.3761,3.3771,3.3774,3.3777,3.3777,3.3737,0,0,0,0,0,3.3762,3.3768,3.3764,3.3775,3.3776,3.3771,3.3773,3.3768,3.3768,3.3768,3.3765,3.3765,3.3769,3.3772,3.3775,3.3788,3.3787,3.3795,3.3798,3.38,3.3801,3.3809,3.3812,3.3776,3.3776,3.3776,0,0,3.3772,3.3771,3.3775,3.3778,3.3778,3.3784,3.3771,3.3777,3.3781,3.3769,3.3777,3.3776,3.3775,3.3786,3.3791,3.3785,3.3811,3.3802,3.3804,3.3804,3.3811,3.3814,3.3817,3.3777,3.3777,3.3777,0,0,3.3793,3.3792,3.3802,3.3802,3.3802,3.3799,3.3801,3.3799,3.3798,3.3807,3.3798,3.3802,3.3809,3.3809,3.381,3.3832,3.3825,3.3834,3.3848,3.3855,3.3858,3.386,3.3868,3.3871,3.3835,3.3835,3.3835,0,3.3804,3.3813,3.3807,3.3814,3.3816,3.3806,3.3816,3.3816,3.3817,3.3819,3.3812,3.3821,3.382,3.3831,3.3837,3.3838,3.3841,3.3834,3.3858,3.386,3.3862,3.387,3.3873,3.3836,3.3836,3.3836,3.3836,0,3.3828,3.3834,3.3841,3.3844,3.3846,3.3855,3.385,3.3853,3.3849,3.3846,3.3855,3.3854,3.3857,3.3859,3.3854,3.387,3.3867,3.3859,3.3848,3.3867,3.3874,3.3877,3.3838,3.3838,3.3837,3.3837,0,0,3.3857,3.3857,3.3859,3.3861,3.3861,3.3865,3.3873,3.3877,3.388,3.3882,3.3888,3.3895,3.3888,3.3889,3.3885,3.3891,3.3909,3.3883,3.3883,3.3888,3.3927,3.3933,3.3936,3.3904,3.3905,3.3905,3.3927,0,3.3877,3.3891,3.3886,3.39,3.3906,3.3897,3.3904,3.3905,3.3903,3.3908,3.3906,3.391,3.3901,3.3902,3.3908,3.3906,3.3917,3.3904,3.391,3.3911,3.391,3.394,3.3945,3.3966,3.393,3.393,3.3931,0,3.3902,3.3905,3.392,3.392,3.3923,3.3929,3.3932,3.3937,3.3938,3.3936,3.3938,3.3932,3.394,3.3929,3.394,3.3932,3.3934,3.3933,3.3934,3.3934,3.3921,3.394,3.3972,3.3975,3.3935,3.3934,3.3934,0,3.3921,3.393,3.394,3.3941,3.3942,3.3947,3.3947,3.3947,3.395,3.3953,3.3955,3.3959,3.3961,3.3964,3.3959,3.3951,3.3971,3.3959,3.3969,3.3969,3.3973,3.3973,3.4005,3.3975,3.3975,3.3975,3.3975,0,3.3944,3.3954,3.3949,3.3955,3.3966,3.3961,3.3971,3.3971,3.3971,3.3977,3.397,3.3976,3.3969,3.3974,3.3971,3.398,3.3981,3.398,3.3979,3.398,3.3981,3.3981,3.398,3.3976,3.3976,3.3975,3.3975,0,3.3968,3.3965,3.3976,3.3976,3.3976,3.3984,3.3984,3.3989,3.3987,3.3995,3.3997,3.3993,3.3999,3.3995,3.4,3.3998,3.4011,3.4008,3.4011,3.401,3.402,3.4019,3.4054,3.4059,3.4026,3.4026,3.4026,0,3.3982,3.3989,3.3991,3.3994,3.3995,3.4002,3.4005,3.4,3.4004,3.4006,3.4012,3.4017,3.4021,3.403,3.4028,3.4033,3.403,3.4042,3.403,3.4032,3.403,3.4029,3.403,3.4044,3.4044,3.4044,3.4045,0,3.4008,3.4007,3.4012,3.4017,3.4021,3.4025,3.4028,3.4031,3.4027,3.4031,3.4037,3.404,3.4047,3.4052,3.4056,3.4056,3.4049,3.4049,3.4051,3.4053,3.4054,3.4053,3.4017,3.4048,3.4047,3.4047,3.4047,3.4047,3.4027,3.4034,3.4036,3.4042,3.4044,3.4047,3.4053,3.4052,3.4058,3.4063,3.406,3.4067,3.4069,3.4073,3.4074,3.408,3.4075,3.4078,3.4079,3.408,3.4082,3.4054,3.408,3.408,3.408,3.408,3.408,0,3.4053,3.4054,3.406,3.4065,3.407,3.4065,3.4068,3.4072,3.4079,3.4082,3.4086,3.4093,3.4099,3.4098,3.4103,3.4107,3.4105,3.4109,3.4108,3.4108,3.4086,3.4083,3.4111,3.4111,3.4111,3.4111,3.4111,3.4111,3.4067,3.4078,3.4077,3.4089,3.409,3.4098,3.41,3.4103,3.4105,3.4114,3.4118,3.4118,3.4119,3.4124,3.4129,3.4129,3.4131,3.4136,3.4134,3.4113,3.411,3.4107,3.4104,3.4136,3.4136,3.4156,3.4156,3.4157]}]]